Regional Weather Roundup
Issued by NWS

Home | Current Version | Previous Version | Text Only | Print | Product List | Glossary On
Versions: 1 2 3 4 5 6 7 8 9 10 11 12 13 14 15 16 17 18 19 20 21 22 23 24 25 26 27 28 29 30 31 32 33 34 35 36 37 38 39 40 41 42 43 44 45 46 47 48 49 50
000
ASUS46 KSEW 211010
RWRWA

WASHINGTON REGIONAL WEATHER ROUNDUP
NATIONAL WEATHER SERVICE SEATTLE WA
300 AM PDT TUE OCT 21 2014

NOTE:"FAIR" INDICATES FEW OR NO CLOUDS BELOW 12,000 FEET WITH NO
SIGNIFICANT WEATHER AND/OR OBSTRUCTIONS TO VISIBILITY.

WAZ505-507>509-211100-
SEATTLE, TACOMA, EVERETT, AND VICINITY

CITY           SKY/WX    TMP DP  RH WIND       PRES   REMARKS
EVERETT        CLOUDY    54  50  86 S12       29.82S
BOEING FIELD   CLOUDY    56  52  86 CALM      29.82S
RENTON         CLOUDY    53  53 100 CALM      29.82S
SEATAC AIRPORT CLOUDY    54  50  86 SW5       29.83S
JBLM-MCCHORD   CLOUDY    53  52  95 S3        29.83R
PUYALLUP       NOT AVBL
JBLM-FT LEWIS  DRIZZLE   53  52  96 S3        29.83R
TACOMA NARROWS CLOUDY    55  49  80 S10       29.83R
$$

WAZ001-503-506-510-514-515-211100-
NORTH INTERIOR

CITY           SKY/WX    TMP DP  RH WIND       PRES   REMARKS
BELLINGHAM     CLOUDY    57  50  77 SE14G23   29.77R
FRIDAY HARBOR  CLOUDY    52  51  97 CALM      29.78R
EASTSOUND      MOCLDY    55  52  88 S12G17    29.75R
PORT ANGELES   CLOUDY    54  48  80 W7        29.77R
NAS WHIDBEY    LGT RAIN  57  53  86 S14       29.79R
BURLINGTON     CLOUDY   N/A N/A N/A S9        29.79S
$$

WAZ020-022-039-040-504-511-512-211100-
SOUTHWEST INTERIOR

CITY           SKY/WX    TMP DP  RH WIND       PRES   REMARKS
SHELTON        LGT RAIN  52  51  97 SE5       29.80R
OLYMPIA        LGT RAIN  54  51  90 S10       29.83S
CHEHALIS         N/A     55  54  94 S8        29.84S
KELSO          CLOUDY    55  50  82 SE6       29.90R
VANCOUVER      CLOUDY    57  50  77 S8        29.89R
SCAPPOOSE, OR  CLOUDY    54  52  93 S3        29.88R
PORTLAND, OR   CLOUDY    56  52  86 S12       29.89S
$$

WAZ021-516-517-211100-
WASHINGTON COAST

CITY           SKY/WX    TMP DP  RH WIND       PRES   REMARKS
FORKS          RAIN      53  53 100 VRB3      29.76R FOG
HOQUIAM        CLOUDY    56  55  97 S7        29.80R
ASTORIA, OR    CLOUDY    55  52  89 S7        29.83R
$$

WAZ019-023-024-040-518-519-211100-
CASCADE MOUNTAINS AND COLUMBIA GORGE

CITY           SKY/WX    TMP DP  RH WIND       PRES   REMARKS
STAMPEDE PASS  NOT AVBL
TROUTDALE, OR  CLOUDY    57  49  74 S6        29.89R
THE DALLES, OR PTCLDY    49  47  93 W3        29.88S
$$

WAZ026-027-041>044-520-521-211100-
EAST SLOPES

CITY           SKY/WX    TMP DP  RH WIND       PRES   REMARKS
OMAK           CLOUDY    53  47  79 S8        29.79F
WENATCHEE      CLOUDY    52  47  83 CALM      29.79F
ELLENSBURG     FOG       44  41  89 CALM      29.81S VSB 1/4
YAKIMA         CLOUDY    43  41  93 W5        29.83S
$$

WAZ028-034-035-211100-
COLUMBIA BASIN

CITY           SKY/WX    TMP DP  RH WIND       PRES   REMARKS
EPHRATA        MOCLDY    47  46  97 SE7       29.79S
MOSES LAKE     MOCLDY    48  46  93 SE5       29.80F
PASCO          PTCLDY    53  49  86 W10       29.84S
HERMISTON, OR  PTCLDY    48  46  93 S3        29.87R
$$

WAZ036>038-211100-
NORTHEAST WASHINGTON

CITY           SKY/WX    TMP DP  RH WIND       PRES   REMARKS
SPOKANE GEIGER CLOUDY    49  45  86 S7        29.84F
SPOKANE FELTS  CLOUDY    51  45  79 CALM      29.83F
FAIRCHILD AFB  CLOUDY    48  46  93 S8        29.84R
COEURDALENE,ID CLOUDY    48  45  87 SW5       29.85F
DEER PARK      CLOUDY    50  46  86 S7        29.83F
$$

WAZ029>033-211100-
SOUTHEAST WASHINGTON

CITY           SKY/WX    TMP DP  RH WIND       PRES   REMARKS
PULLMAN        LGT RAIN  48  45  89 S3        29.88S
LEWISTON, ID   LGT RAIN  53  49  86 VRB3      29.86S
WALLA WALLA    CLOUDY    54  47  77 S9        29.87R
PENDLETON, OR  MOCLDY    50  45  83 S6        29.87R
$$



USA.gov is the U.S. government's official web portal to all federal, state and local government web resources and services.